"read_dt","SO2 (ppb)","flags","PMT voltage (V)","lamp voltage (V)","lamp intensity (Hz)","internal temp (C)","react chamber temp (C)","sample flow (l/min)","pres (mmHg)","SO2 bkg (ppb)","SO2 coefficient"
2015-05-31 00:00:00,1783E-3,5C000000,-0724,0829,12285,026.7,045.4,0.478,736.9,01.18,0.508
2015-05-31 00:01:00,1713E-3,5C000000,-0724,0829,12290,026.7,045.4,0.478,736.9,01.18,0.508
2015-05-31 00:02:00,1781E-3,5C000000,-0724,0829,12278,026.7,045.4,0.478,736.8,01.18,0.508
2015-05-31 00:03:00,1894E-3,5C000000,-0724,0829,12234,026.7,045.4,0.478,736.8,01.18,0.508
2015-05-31 00:04:00,1752E-3,5C000000,-0724,0830,12079,026.7,045.4,0.478,736.8,01.18,0.508
2015-05-31 00:05:00,1694E-3,5C000000,-0724,0829,12187,026.7,045.4,0.478,736.8,01.18,0.508
2015-05-31 00:06:00,1707E-3,5C000000,-0724,0829,12227,026.7,045.4,0.478,736.8,01.18,0.508
2015-05-31 00:07:00,1658E-3,5C000000,-0724,0830,12044,026.7,045.4,0.478,736.8,01.18,0.508
2015-05-31 00:08:00,1840E-3,5C000000,-0724,0830,12234,026.7,045.4,0.478,736.9,01.18,0.508
2015-05-31 00:09:00,1825E-3,5C000000,-0724,0829,12067,026.7,045.4,0.478,736.9,01.18,0.508
2015-05-31 00:10:00,1691E-3,5C000000,-0724,0829,12211,026.7,045.4,0.478,736.9,01.18,0.508
2015-05-31 00:11:00,1709E-3,5C000000,-0724,0829,12063,026.8,045.4,0.478,736.9,01.18,0.508
2015-05-31 00:12:00,1766E-3,5C000000,-0724,0829,12240,026.8,045.4,0.478,736.9,01.18,0.508
2015-05-31 00:13:00,1815E-3,5C000000,-0724,0829,12134,026.7,045.4,0.478,736.9,01.18,0.508
2015-05-31 00:14:00,1686E-3,5C000000,-0724,0829,12033,026.7,045.4,0.478,736.9,01.18,0.508
2015-05-31 00:15:00,1819E-3,5C000000,-0724,0828,12322,026.7,045.4,0.478,736.9,01.18,0.508
2015-05-31 00:16:00,1828E-3,5C000000,-0724,0828,12206,026.8,045.4,0.478,736.9,01.18,0.508
2015-05-31 00:17:00,1890E-3,5C000000,-0724,0828,12400,026.8,045.4,0.478,736.9,01.18,0.508
2015-05-31 00:18:00,1638E-3,5C000000,-0724,0829,12247,026.8,045.4,0.478,736.9,01.18,0.508
2015-05-31 00:19:00,1704E-3,5C000000,-0724,0828,12193,026.8,045.4,0.478,736.9,01.18,0.508
2015-05-31 00:20:00,1681E-3,5C000000,-0724,0829,12438,026.8,045.4,0.478,736.9,01.18,0.508
2015-05-31 00:21:00,1829E-3,5C000000,-0724,0829,12262,026.8,045.4,0.478,736.9,01.18,0.508
2015-05-31 00:22:00,1697E-3,5C000000,-0724,0829,12320,026.8,045.4,0.478,737.0,01.18,0.508
2015-05-31 00:23:00,1747E-3,5C000000,-0724,0829,12118,026.7,045.4,0.478,736.9,01.18,0.508
2015-05-31 00:24:00,1756E-3,5C000000,-0724,0830,12251,026.8,045.4,0.478,736.9,01.18,0.508
2015-05-31 00:25:00,1691E-3,5C000000,-0724,0828,12308,026.8,045.4,0.478,736.9,01.18,0.508
2015-05-31 00:26:00,1843E-3,5C000000,-0724,0829,12296,026.8,045.4,0.478,736.9,01.18,0.508
2015-05-31 00:27:00,1741E-3,5C000000,-0724,0829,12311,026.8,045.4,0.478,737.0,01.18,0.508
2015-05-31 00:28:00,1715E-3,5C000000,-0724,0829,12212,026.8,045.4,0.478,737.0,01.18,0.508
2015-05-31 00:29:00,1682E-3,5C000000,-0724,0829,12331,026.8,045.4,0.478,736.9,01.18,0.508
2015-05-31 00:30:00,1630E-3,5C000000,-0724,0829,12082,026.8,045.4,0.478,736.9,01.18,0.508
2015-05-31 00:31:00,1827E-3,5C000000,-0724,0828,12339,026.8,045.4,0.478,736.9,01.18,0.508
2015-05-31 00:32:00,1789E-3,5C000000,-0724,0828,12196,026.8,045.4,0.478,736.9,01.18,0.508
2015-05-31 00:33:00,1601E-3,5C000000,-0724,0829,12264,026.8,045.4,0.477,736.9,01.18,0.508
2015-05-31 00:34:00,1742E-3,5C000000,-0724,0828,12126,026.8,045.4,0.478,736.9,01.18,0.508
2015-05-31 00:35:00,1710E-3,5C000000,-0724,0829,12249,026.8,045.4,0.478,736.9,01.18,0.508
2015-05-31 00:36:00,1725E-3,5C000000,-0724,0828,12255,026.8,045.4,0.478,736.9,01.18,0.508
2015-05-31 00:37:00,1802E-3,5C000000,-0724,0829,12273,026.8,045.4,0.478,736.9,01.18,0.508
2015-05-31 00:38:00,1764E-3,5C000000,-0724,0829,12375,026.8,045.4,0.478,736.9,01.18,0.508
2015-05-31 00:39:00,1808E-3,5C000000,-0724,0828,12062,026.8,045.4,0.478,736.9,01.18,0.508
2015-05-31 00:40:00,1713E-3,5C000000,-0724,0829,12125,026.8,045.4,0.478,736.9,01.18,0.508
2015-05-31 00:41:00,1677E-3,5C000000,-0724,0828,12181,026.8,045.4,0.478,737.0,01.18,0.508
2015-05-31 00:42:00,1648E-3,5C000000,-0724,0827,12237,026.8,045.4,0.478,737.0,01.18,0.508
2015-05-31 00:43:00,1725E-3,5C000000,-0724,0828,12154,026.8,045.4,0.478,737.0,01.18,0.508
2015-05-31 00:44:00,1648E-3,5C000000,-0724,0828,12194,026.8,045.4,0.478,737.0,01.18,0.508
2015-05-31 00:45:00,1630E-3,5C000000,-0724,0829,12187,026.8,045.4,0.478,737.0,01.18,0.508
2015-05-31 00:46:00,1795E-3,5C000000,-0724,0829,12084,026.8,045.4,0.478,737.0,01.18,0.508
2015-05-31 00:47:00,1711E-3,5C000000,-0724,0829,12080,026.8,045.4,0.478,736.9,01.18,0.508
2015-05-31 00:48:00,1661E-3,5C000000,-0724,0829,12230,026.8,045.4,0.477,737.0,01.18,0.508
2015-05-31 00:49:00,1634E-3,5C000000,-0724,0828,12166,026.8,045.4,0.478,737.0,01.18,0.508
2015-05-31 00:50:00,1703E-3,5C000000,-0724,0830,12203,026.8,045.4,0.478,736.9,01.18,0.508
2015-05-31 00:51:00,1718E-3,5C000000,-0724,0830,12191,026.8,045.4,0.478,737.0,01.18,0.508
2015-05-31 00:52:00,1642E-3,5C000000,-0724,0828,12357,026.8,045.4,0.478,737.0,01.18,0.508
2015-05-31 00:53:00,1736E-3,5C000000,-0724,0828,12135,026.8,045.4,0.477,737.0,01.18,0.508
2015-05-31 00:54:00,1715E-3,5C000000,-0724,0828,12258,026.8,045.4,0.478,737.0,01.18,0.508
2015-05-31 00:55:00,1649E-3,5C000000,-0724,0829,12146,026.9,045.4,0.478,737.0,01.18,0.508
2015-05-31 00:56:00,1683E-3,5C000000,-0724,0828,12231,026.8,045.4,0.478,737.0,01.18,0.508
2015-05-31 00:57:00,1741E-3,5C000000,-0724,0828,12205,026.9,045.4,0.477,737.0,01.18,0.508
2015-05-31 00:58:00,1666E-3,5C000000,-0724,0829,12254,026.8,045.4,0.478,737.0,01.18,0.508
2015-05-31 00:59:00,1585E-3,5C000000,-0724,0828,12066,026.9,045.4,0.478,737.0,01.18,0.508
2015-05-31 01:00:00,1631E-3,5C000000,-0724,0828,12267,026.8,045.4,0.478,737.0,01.18,0.508
2015-05-31 01:01:00,1836E-3,5C000000,-0724,0829,12114,026.9,045.4,0.478,737.1,01.18,0.508
2015-05-31 01:02:00,1826E-3,5C000000,-0724,0828,12326,026.9,045.4,0.478,737.0,01.18,0.508
2015-05-31 01:03:00,1759E-3,5C000000,-0724,0828,12154,026.9,045.4,0.477,737.0,01.18,0.508
2015-05-31 01:04:00,1839E-3,5C000000,-0724,0828,12078,026.9,045.4,0.478,736.9,01.18,0.508
2015-05-31 01:05:00,1691E-3,5C000000,-0724,0827,12413,026.9,045.4,0.478,736.9,01.18,0.508
2015-05-31 01:06:00,1742E-3,5C000000,-0724,0829,12277,026.9,045.4,0.478,736.9,01.18,0.508
2015-05-31 01:07:00,1721E-3,5C000000,-0724,0829,12263,026.9,045.4,0.477,736.9,01.18,0.508
2015-05-31 01:08:00,1872E-3,5C000000,-0724,0829,12302,026.9,045.4,0.477,736.9,01.18,0.508
2015-05-31 01:09:00,1709E-3,5C000000,-0724,0829,11996,026.9,045.4,0.478,736.9,01.18,0.508
2015-05-31 01:10:00,1753E-3,5C000000,-0724,0828,12136,026.9,045.4,0.478,736.8,01.18,0.508
2015-05-31 01:11:00,1672E-3,5C000000,-0724,0828,12173,026.9,045.4,0.478,736.8,01.18,0.508
2015-05-31 01:12:00,1800E-3,5C000000,-0724,0828,12328,026.9,045.4,0.477,736.9,01.18,0.508
2015-05-31 01:13:00,1699E-3,5C000000,-0724,0828,12291,026.9,045.4,0.477,736.9,01.18,0.508
2015-05-31 01:14:00,1778E-3,5C000000,-0724,0829,12342,026.9,045.4,0.478,736.8,01.18,0.508
2015-05-31 01:15:00,1708E-3,5C000000,-0724,0829,12195,026.9,045.5,0.478,736.8,01.18,0.508
2015-05-31 01:16:00,1823E-3,5C000000,-0724,0828,12172,026.9,045.4,0.478,736.8,01.18,0.508
2015-05-31 01:17:00,1835E-3,5C000000,-0724,0830,12223,026.9,045.4,0.477,736.8,01.18,0.508
2015-05-31 01:18:00,1639E-3,5C000000,-0724,0829,12136,026.9,045.4,0.478,736.8,01.18,0.508
2015-05-31 01:19:00,1666E-3,5C000000,-0724,0829,12124,026.9,045.4,0.478,736.8,01.18,0.508
2015-05-31 01:20:00,1641E-3,5C000000,-0724,0828,12172,026.9,045.4,0.478,736.8,01.18,0.508
2015-05-31 01:21:00,1718E-3,5C000000,-0724,0829,12132,026.9,045.4,0.477,736.8,01.18,0.508
2015-05-31 01:22:00,1662E-3,5C000000,-0724,0829,12232,026.9,045.4,0.477,736.8,01.18,0.508
2015-05-31 01:23:00,1866E-3,5C000000,-0724,0829,11982,026.9,045.4,0.478,736.8,01.18,0.508
2015-05-31 01:24:00,1697E-3,5C000000,-0724,0829,12208,026.9,045.4,0.478,736.8,01.18,0.508
2015-05-31 01:25:00,1652E-3,5C000000,-0724,0829,12051,026.9,045.4,0.478,736.9,01.18,0.508
2015-05-31 01:26:00,1681E-3,5C000000,-0724,0829,12207,026.9,045.4,0.477,736.9,01.18,0.508
2015-05-31 01:27:00,1884E-3,5C000000,-0724,0829,12386,026.9,045.4,0.478,736.8,01.18,0.508
2015-05-31 01:28:00,1733E-3,5C000000,-0724,0828,12262,026.9,045.4,0.478,736.9,01.18,0.508
2015-05-31 01:29:00,1735E-3,5C000000,-0724,0829,12142,026.9,045.4,0.478,736.9,01.18,0.508
2015-05-31 01:30:00,1754E-3,5C000000,-0724,0829,12372,027.0,045.4,0.478,736.9,01.18,0.508
2015-05-31 01:31:00,1749E-3,5C000000,-0724,0829,12310,026.9,045.4,0.477,736.9,01.18,0.508
2015-05-31 01:32:00,1817E-3,5C000000,-0724,0830,12217,026.9,045.4,0.478,736.8,01.18,0.508
2015-05-31 01:33:00,1747E-3,5C000000,-0724,0830,12340,026.9,045.4,0.478,736.8,01.18,0.508
2015-05-31 01:34:00,1726E-3,5C000000,-0724,0829,12122,026.9,045.4,0.478,736.8,01.18,0.508
2015-05-31 01:35:00,1600E-3,5C000000,-0724,0828,12245,026.9,045.4,0.477,736.8,01.18,0.508
2015-05-31 01:36:00,1833E-3,5C000000,-0724,0828,12229,027.0,045.4,0.477,736.8,01.18,0.508
2015-05-31 01:37:00,1737E-3,5C000000,-0724,0829,12220,027.0,045.4,0.478,736.8,01.18,0.508
2015-05-31 01:38:00,1777E-3,5C000000,-0724,0830,12133,027.0,045.4,0.478,736.8,01.18,0.508
2015-05-31 01:39:00,1700E-3,5C000000,-0724,0829,12157,027.0,045.4,0.478,736.8,01.18,0.508
2015-05-31 01:40:00,1602E-3,5C000000,-0724,0829,12285,027.0,045.4,0.477,736.8,01.18,0.508
2015-05-31 01:41:00,1731E-3,5C000000,-0724,0829,12192,027.0,045.4,0.478,736.8,01.18,0.508
2015-05-31 01:42:00,1720E-3,5C000000,-0724,0829,12255,026.9,045.4,0.478,736.8,01.18,0.508
2015-05-31 01:43:00,1669E-3,5C000000,-0724,0830,12191,027.0,045.4,0.478,736.8,01.18,0.508
2015-05-31 01:44:00,1733E-3,5C000000,-0724,0830,12231,027.0,045.4,0.477,736.8,01.18,0.508
2015-05-31 01:45:00,1731E-3,5C000000,-0724,0830,12142,026.9,045.4,0.477,736.8,01.18,0.508
2015-05-31 01:46:00,1591E-3,5C000000,-0724,0829,12127,027.0,045.4,0.478,736.8,01.18,0.508
2015-05-31 01:47:00,1707E-3,5C000000,-0724,0830,12352,027.0,045.4,0.478,736.8,01.18,0.508
2015-05-31 01:48:00,1711E-3,5C000000,-0724,0829,12139,027.0,045.4,0.477,736.8,01.18,0.508
2015-05-31 01:49:00,1752E-3,5C000000,-0724,0829,12311,027.0,045.4,0.477,736.8,01.18,0.508
2015-05-31 01:50:00,1718E-3,5C000000,-0724,0829,12244,027.0,045.4,0.478,736.8,01.18,0.508
2015-05-31 01:51:00,1833E-3,5C000000,-0724,0829,12202,027.0,045.4,0.478,736.8,01.18,0.508
2015-05-31 01:52:00,1644E-3,5C000000,-0724,0829,12331,027.0,045.4,0.477,736.9,01.18,0.508
2015-05-31 01:53:00,1772E-3,5C000000,-0724,0829,12110,027.0,045.4,0.477,736.9,01.18,0.508
2015-05-31 01:54:00,1838E-3,5C000000,-0724,0828,12125,027.0,045.4,0.478,736.9,01.18,0.508
2015-05-31 01:55:00,1710E-3,5C000000,-0724,0829,12154,027.0,045.4,0.478,736.9,01.18,0.508
2015-05-31 01:56:00,1746E-3,5C000000,-0724,0829,12206,027.0,045.4,0.478,736.9,01.18,0.508
2015-05-31 01:57:00,1736E-3,5C000000,-0724,0829,12200,027.0,045.4,0.477,736.9,01.18,0.508
2015-05-31 01:58:00,1795E-3,5C000000,-0724,0829,12225,026.9,045.4,0.477,736.9,01.18,0.508
2015-05-31 01:59:00,1748E-3,5C000000,-0724,0828,12094,027.0,045.4,0.478,736.9,01.18,0.508
2015-05-31 02:00:00,1858E-3,5C000000,-0724,0829,12196,027.0,045.4,0.478,736.9,01.18,0.508
2015-05-31 02:01:00,1780E-3,5C000000,-0724,0829,12221,027.0,045.4,0.478,736.9,01.18,0.508
2015-05-31 02:02:00,1813E-3,5C000000,-0724,0829,12129,027.0,045.4,0.477,736.8,01.18,0.508
2015-05-31 02:03:00,1625E-3,5C000000,-0724,0828,12222,027.0,045.4,0.478,736.9,01.18,0.508
2015-05-31 02:04:00,1772E-3,5C000000,-0724,0829,12145,027.0,045.4,0.478,736.9,01.18,0.508
2015-05-31 02:05:00,1661E-3,5C000000,-0724,0828,12155,027.0,045.4,0.478,736.9,01.18,0.508
2015-05-31 02:06:00,1720E-3,5C000000,-0724,0828,12137,027.0,045.4,0.477,736.9,01.18,0.508
2015-05-31 02:07:00,1627E-3,5C000000,-0724,0829,12126,027.0,045.4,0.477,736.9,01.18,0.508
2015-05-31 02:08:00,1727E-3,5C000000,-0724,0828,12277,027.0,045.4,0.478,736.9,01.18,0.508
2015-05-31 02:09:00,1740E-3,5C000000,-0724,0829,12219,027.0,045.4,0.478,736.9,01.18,0.508
2015-05-31 02:10:00,1679E-3,5C000000,-0724,0828,12051,027.0,045.4,0.478,736.9,01.18,0.508
2015-05-31 02:11:00,1814E-3,5C000000,-0724,0828,12177,027.0,045.4,0.477,736.9,01.18,0.508
2015-05-31 02:12:00,1739E-3,5C000000,-0724,0829,12226,027.0,045.4,0.477,737.0,01.18,0.508
2015-05-31 02:13:00,1673E-3,5C000000,-0724,0829,12262,027.0,045.4,0.478,736.9,01.18,0.508
2015-05-31 02:14:00,1679E-3,5C000000,-0724,0828,12077,027.0,045.4,0.478,736.9,01.18,0.508
2015-05-31 02:15:00,1692E-3,5C000000,-0724,0828,12180,027.0,045.4,0.478,736.9,01.18,0.508
2015-05-31 02:16:00,1624E-3,5C000000,-0724,0829,12161,027.0,045.4,0.477,736.9,01.18,0.508
2015-05-31 02:17:00,1742E-3,5C000000,-0724,0828,12147,027.0,045.4,0.477,736.9,01.18,0.508
2015-05-31 02:18:00,1733E-3,5C000000,-0724,0829,12153,027.0,045.4,0.478,736.9,01.18,0.508
2015-05-31 02:19:00,1727E-3,5C000000,-0724,0829,12299,027.0,045.4,0.478,736.9,01.18,0.508
2015-05-31 02:20:00,1718E-3,5C000000,-0724,0829,12390,027.0,045.4,0.478,736.9,01.18,0.508
2015-05-31 02:21:00,1789E-3,5C000000,-0724,0831,12238,027.1,045.4,0.477,736.9,01.18,0.508
2015-05-31 02:22:00,1751E-3,5C000000,-0724,0829,12116,027.0,045.4,0.478,737.0,01.18,0.508
2015-05-31 02:23:00,1696E-3,5C000000,-0724,0829,12317,027.0,045.4,0.478,737.0,01.18,0.508
2015-05-31 02:24:00,1799E-3,5C000000,-0724,0829,12270,027.0,045.4,0.478,737.0,01.18,0.508
2015-05-31 02:25:00,1662E-3,5C000000,-0724,0828,12085,027.0,045.4,0.477,737.0,01.18,0.508
2015-05-31 02:26:00,1642E-3,5C000000,-0724,0829,12385,026.9,045.4,0.477,736.9,01.18,0.508
2015-05-31 02:27:00,1700E-3,5C000000,-0724,0829,12412,027.0,045.4,0.478,737.0,01.18,0.508
2015-05-31 02:28:00,1739E-3,5C000000,-0724,0829,12279,026.9,045.4,0.478,736.9,01.18,0.508
2015-05-31 02:29:00,1715E-3,5C000000,-0724,0829,12021,026.9,045.4,0.478,736.9,01.18,0.508
2015-05-31 02:30:00,1680E-3,5C000000,-0724,0828,12125,026.9,045.4,0.477,736.9,01.18,0.508
2015-05-31 02:31:00,1736E-3,5C000000,-0724,0829,12169,026.9,045.4,0.478,736.9,01.18,0.508
2015-05-31 02:32:00,1844E-3,5C000000,-0724,0828,12233,026.9,045.4,0.478,736.9,01.18,0.508
2015-05-31 02:33:00,1785E-3,5C000000,-0724,0828,12224,027.0,045.4,0.478,736.9,01.18,0.508
2015-05-31 02:34:00,1776E-3,5C000000,-0724,0829,12314,027.0,045.4,0.477,736.9,01.18,0.508
2015-05-31 02:35:00,1694E-3,5C000000,-0724,0829,12457,027.0,045.4,0.478,736.9,01.18,0.508
2015-05-31 02:36:00,1646E-3,5C000000,-0724,0828,12070,027.0,045.4,0.478,736.8,01.18,0.508
2015-05-31 02:37:00,1757E-3,5C000000,-0724,0828,12236,027.0,045.4,0.477,736.9,01.18,0.508
2015-05-31 02:38:00,1745E-3,5C000000,-0724,0827,12274,027.0,045.4,0.477,736.8,01.18,0.508
2015-05-31 02:39:00,1734E-3,5C000000,-0724,0828,12279,027.0,045.4,0.478,736.8,01.18,0.508
2015-05-31 02:40:00,1861E-3,5C000000,-0724,0828,12196,027.0,045.4,0.478,736.7,01.18,0.508
2015-05-31 02:41:00,1786E-3,5C000000,-0724,0829,12174,027.0,045.4,0.477,736.7,01.18,0.508
2015-05-31 02:42:00,1716E-3,5C000000,-0724,0829,12053,027.0,045.4,0.477,736.7,01.18,0.508
2015-05-31 02:43:00,1745E-3,5C000000,-0724,0829,12303,027.0,045.4,0.478,736.8,01.18,0.508
2015-05-31 02:44:00,1780E-3,5C000000,-0724,0829,12188,027.1,045.4,0.478,736.8,01.18,0.508
2015-05-31 02:45:00,1704E-3,5C000000,-0724,0828,12041,027.1,045.4,0.477,736.8,01.18,0.508
2015-05-31 02:46:00,1851E-3,5C000000,-0724,0829,12338,027.0,045.4,0.477,736.8,01.18,0.508
2015-05-31 02:47:00,1746E-3,5C000000,-0724,0828,12022,027.1,045.4,0.478,736.8,01.18,0.508
2015-05-31 02:48:00,1749E-3,5C000000,-0724,0828,12296,027.1,045.4,0.478,736.8,01.18,0.508
2015-05-31 02:49:00,1801E-3,5C000000,-0724,0829,12241,027.1,045.4,0.477,736.8,01.18,0.508
2015-05-31 02:50:00,1691E-3,5C000000,-0724,0830,12324,027.1,045.4,0.477,736.7,01.18,0.508
2015-05-31 02:51:00,1682E-3,5C000000,-0724,0829,12093,027.1,045.4,0.478,736.7,01.18,0.508
2015-05-31 02:52:00,1670E-3,5C000000,-0724,0830,12244,027.1,045.4,0.478,736.8,01.18,0.508
2015-05-31 02:53:00,1703E-3,5C000000,-0724,0829,12240,027.1,045.4,0.477,736.8,01.18,0.508
2015-05-31 02:54:00,1740E-3,5C000000,-0724,0829,12236,027.1,045.4,0.477,736.8,01.18,0.508
2015-05-31 02:55:00,1695E-3,5C000000,-0724,0831,12261,027.1,045.4,0.478,736.8,01.18,0.508
2015-05-31 02:56:00,1636E-3,5C000000,-0724,0830,12228,027.1,045.4,0.478,736.8,01.18,0.508
2015-05-31 02:57:00,1675E-3,5C000000,-0724,0829,12312,027.1,045.4,0.477,736.8,01.18,0.508
2015-05-31 02:58:00,1637E-3,5C000000,-0724,0829,12184,027.1,045.4,0.477,736.8,01.18,0.508
2015-05-31 02:59:00,1765E-3,5C000000,-0724,0828,12284,027.1,045.4,0.477,736.8,01.18,0.508
2015-05-31 03:00:00,1669E-3,5C000000,-0724,0829,12228,027.2,045.4,0.478,736.8,01.18,0.508
2015-05-31 03:01:00,1861E-3,5C000000,-0724,0829,12279,027.2,045.4,0.477,736.8,01.18,0.508
2015-05-31 03:02:00,1639E-3,5C000000,-0724,0828,12002,027.2,045.4,0.477,736.8,01.18,0.508
2015-05-31 03:03:00,1746E-3,5C000000,-0724,0828,12246,027.2,045.4,0.478,736.8,01.18,0.508
2015-05-31 03:04:00,1685E-3,5C000000,-0724,0828,12216,027.2,045.4,0.478,736.8,01.18,0.508
2015-05-31 03:05:00,1656E-3,5C000000,-0724,0828,12124,027.2,045.4,0.477,736.9,01.18,0.508
2015-05-31 03:06:00,1737E-3,5C000000,-0724,0828,12164,027.2,045.4,0.477,736.8,01.18,0.508
2015-05-31 03:07:00,1777E-3,5C000000,-0724,0829,12203,027.2,045.4,0.478,736.9,01.18,0.508
2015-05-31 03:08:00,1703E-3,5C000000,-0724,0828,12323,027.3,045.4,0.477,736.9,01.18,0.508
2015-05-31 03:09:00,1758E-3,5C000000,-0724,0829,12290,027.3,045.4,0.477,736.9,01.18,0.508
2015-05-31 03:10:00,1609E-3,5C000000,-0724,0829,12245,027.2,045.4,0.478,736.9,01.18,0.508
2015-05-31 03:11:00,1823E-3,5C000000,-0724,0829,12219,027.2,045.4,0.477,736.9,01.18,0.508
2015-05-31 03:12:00,1823E-3,5C000000,-0724,0828,12237,027.3,045.4,0.477,736.9,01.18,0.508
2015-05-31 03:13:00,1869E-3,5C000000,-0724,0829,12207,027.3,045.4,0.477,736.9,01.18,0.508
2015-05-31 03:14:00,1709E-3,5C000000,-0724,0828,12152,027.3,045.4,0.477,736.8,01.18,0.508
2015-05-31 03:15:00,1750E-3,5C000000,-0724,0829,12250,027.3,045.4,0.477,736.9,01.18,0.508
2015-05-31 03:16:00,1875E-3,5C000000,-0724,0829,12183,027.3,045.4,0.477,736.9,01.18,0.508
2015-05-31 03:17:00,1730E-3,5C000000,-0724,0829,12152,027.3,045.4,0.477,736.9,01.18,0.508
2015-05-31 03:18:00,1847E-3,5C000000,-0724,0829,12238,027.3,045.4,0.477,736.9,01.18,0.508
2015-05-31 03:19:00,1709E-3,5C000000,-0724,0829,12263,027.3,045.4,0.477,736.9,01.18,0.508
2015-05-31 03:20:00,1777E-3,5C000000,-0724,0829,12210,027.3,045.4,0.477,736.9,01.18,0.508
2015-05-31 03:21:00,1688E-3,5C000000,-0724,0829,12266,027.3,045.4,0.477,736.9,01.18,0.508
2015-05-31 03:22:00,1705E-3,5C000000,-0724,0830,12177,027.3,045.4,0.477,736.9,01.18,0.508
2015-05-31 03:23:00,1703E-3,5C000000,-0724,0830,12239,027.4,045.4,0.477,736.9,01.18,0.508
2015-05-31 03:24:00,1713E-3,5C000000,-0724,0829,12100,027.4,045.4,0.477,736.9,01.18,0.508
2015-05-31 03:25:00,1810E-3,5C000000,-0724,0829,12091,027.4,045.4,0.477,736.9,01.18,0.508
2015-05-31 03:26:00,1637E-3,5C000000,-0724,0829,12256,027.4,045.4,0.477,736.9,01.18,0.508
2015-05-31 03:27:00,1741E-3,5C000000,-0724,0829,12172,027.4,045.4,0.477,736.9,01.18,0.508
2015-05-31 03:28:00,1650E-3,5C000000,-0724,0828,12184,027.4,045.4,0.477,736.9,01.18,0.508
2015-05-31 03:29:00,1678E-3,5C000000,-0724,0829,12095,027.4,045.4,0.477,736.9,01.18,0.508
2015-05-31 03:30:00,1766E-3,5C000000,-0724,0827,12316,027.4,045.4,0.477,736.9,01.18,0.508
2015-05-31 03:31:00,1735E-3,5C000000,-0724,0829,12148,027.4,045.4,0.477,736.9,01.18,0.508
2015-05-31 03:32:00,1764E-3,5C000000,-0724,0829,12294,027.4,045.4,0.477,736.9,01.18,0.508
2015-05-31 03:33:00,1677E-3,5C000000,-0724,0830,12096,027.4,045.4,0.477,736.9,01.18,0.508
2015-05-31 03:34:00,1832E-3,5C000000,-0724,0828,12193,027.4,045.4,0.477,736.9,01.18,0.508
2015-05-31 03:35:00,1779E-3,5C000000,-0724,0830,12397,027.4,045.4,0.477,736.9,01.18,0.508
2015-05-31 03:36:00,1751E-3,5C000000,-0724,0829,12262,027.4,045.4,0.477,736.9,01.18,0.508
2015-05-31 03:37:00,1785E-3,5C000000,-0724,0830,12310,027.4,045.4,0.477,737.0,01.18,0.508
2015-05-31 03:38:00,1764E-3,5C000000,-0724,0829,12215,027.4,045.5,0.477,736.9,01.18,0.508
2015-05-31 03:39:00,1760E-3,5C000000,-0724,0829,12097,027.4,045.4,0.477,736.9,01.18,0.508
2015-05-31 03:40:00,1841E-3,5C000000,-0724,0829,12138,027.4,045.4,0.477,737.0,01.18,0.508
2015-05-31 03:41:00,1882E-3,5C000000,-0724,0830,12109,027.4,045.4,0.477,736.9,01.18,0.508
2015-05-31 03:42:00,1807E-3,5C000000,-0724,0830,12110,027.4,045.4,0.477,736.9,01.18,0.508
2015-05-31 03:43:00,1777E-3,5C000000,-0724,0830,12279,027.4,045.4,0.477,736.9,01.18,0.508
2015-05-31 03:44:00,1756E-3,5C000000,-0724,0830,12052,027.4,045.4,0.477,736.9,01.18,0.508
2015-05-31 03:45:00,1659E-3,5C000000,-0724,0829,12154,027.4,045.4,0.477,736.9,01.18,0.508
2015-05-31 03:46:00,1666E-3,5C000000,-0724,0830,12023,027.4,045.4,0.477,736.9,01.18,0.508
2015-05-31 03:47:00,1687E-3,5C000000,-0724,0829,12108,027.4,045.4,0.477,736.9,01.18,0.508
2015-05-31 03:48:00,1698E-3,5C000000,-0724,0829,12130,027.4,045.4,0.477,736.9,01.18,0.508
2015-05-31 03:49:00,1801E-3,5C000000,-0724,0829,12323,027.4,045.4,0.477,736.9,01.18,0.508
2015-05-31 03:50:00,1736E-3,5C000000,-0724,0829,12211,027.5,045.4,0.477,736.9,01.18,0.508
2015-05-31 03:51:00,1607E-3,5C000000,-0724,0829,12328,027.4,045.4,0.477,736.9,01.18,0.508
2015-05-31 03:52:00,1759E-3,5C000000,-0724,0830,12215,027.4,045.4,0.477,736.9,01.18,0.508
2015-05-31 03:53:00,1693E-3,5C000000,-0724,0830,11998,027.5,045.4,0.477,736.9,01.18,0.508
2015-05-31 03:54:00,1735E-3,5C000000,-0724,0829,12213,027.5,045.4,0.477,736.9,01.18,0.508
2015-05-31 03:55:00,1718E-3,5C000000,-0724,0829,12163,027.4,045.4,0.477,736.9,01.18,0.508
2015-05-31 03:56:00,1713E-3,5C000000,-0724,0829,12121,027.4,045.4,0.477,736.8,01.18,0.508
2015-05-31 03:57:00,1717E-3,5C000000,-0724,0829,12253,027.5,045.4,0.477,736.9,01.18,0.508
2015-05-31 03:58:00,1616E-3,5C000000,-0724,0828,12046,027.4,045.4,0.477,736.8,01.18,0.508
2015-05-31 03:59:00,1786E-3,5C000000,-0724,0829,12016,027.4,045.4,0.477,736.9,01.18,0.508
2015-05-31 04:00:00,1776E-3,5C000000,-0724,0830,12251,027.5,045.4,0.477,736.8,01.18,0.508
2015-05-31 04:01:00,1677E-3,5C000000,-0724,0829,12310,027.4,045.4,0.477,736.8,01.18,0.508
2015-05-31 04:02:00,1739E-3,5C000000,-0724,0829,12265,027.5,045.4,0.477,736.8,01.18,0.508
2015-05-31 04:03:00,1765E-3,5C000000,-0724,0829,12100,027.4,045.4,0.477,736.8,01.18,0.508
2015-05-31 04:04:00,1712E-3,5C000000,-0724,0830,12166,027.4,045.4,0.477,736.8,01.18,0.508
2015-05-31 04:05:00,1858E-3,5C000000,-0724,0830,11993,027.5,045.4,0.477,736.8,01.18,0.508
2015-05-31 04:06:00,1706E-3,5C000000,-0724,0830,12047,027.5,045.4,0.477,736.8,01.18,0.508
2015-05-31 04:07:00,1763E-3,5C000000,-0724,0829,12175,027.4,045.4,0.477,736.8,01.18,0.508
2015-05-31 04:08:00,1682E-3,5C000000,-0724,0829,12080,027.4,045.4,0.477,736.8,01.18,0.508
2015-05-31 04:09:00,1632E-3,5C000000,-0724,0829,12224,027.5,045.4,0.477,736.7,01.18,0.508
2015-05-31 04:10:00,1725E-3,5C000000,-0724,0830,12119,027.5,045.4,0.477,736.7,01.18,0.508
2015-05-31 04:11:00,1790E-3,5C000000,-0724,0829,12128,027.5,045.4,0.477,736.7,01.18,0.508
2015-05-31 04:12:00,1751E-3,5C000000,-0724,0829,12193,027.5,045.4,0.477,736.7,01.18,0.508
2015-05-31 04:13:00,1702E-3,5C000000,-0724,0829,11993,027.5,045.4,0.477,736.7,01.18,0.508
2015-05-31 04:14:00,1799E-3,5C000000,-0724,0829,12240,027.5,045.4,0.477,736.7,01.18,0.508
2015-05-31 04:15:00,1807E-3,5C000000,-0724,0830,12192,027.5,045.4,0.477,736.7,01.18,0.508
2015-05-31 04:16:00,1778E-3,5C000000,-0724,0829,12021,027.5,045.4,0.477,736.7,01.18,0.508
2015-05-31 04:17:00,1744E-3,5C000000,-0724,0829,12174,027.5,045.4,0.477,736.7,01.18,0.508
2015-05-31 04:18:00,1659E-3,5C000000,-0724,0829,12224,027.5,045.4,0.477,736.7,01.18,0.508
2015-05-31 04:19:00,1664E-3,5C000000,-0724,0830,12086,027.5,045.4,0.477,736.7,01.18,0.508
2015-05-31 04:20:00,1719E-3,5C000000,-0724,0830,12010,027.5,045.4,0.477,736.7,01.18,0.508